USA 342 (55263 NORAD) Tracking and Keplerian Element Data

This shows tracking and keplerian element data for the satellite.

Feedback or suggestion? Click here.




ElementValue
Catalog55263
NameUSA 342
Epoch Orbit110
Epoch Day126.54454462
Epoch Year2023
RAAN234.4621
Inclination0.0114
Eccentricity3.62E-05
Argument of Perigee219.2086
Mean Anonmoly196.0327
Mean Motion1.00273141
Decay Rate8.1E-07
L11 55263U 23008A 23126.54454462 .00000081 00000+0 00000+0 0 9999
L22 55263 0.0114 234.4621 0000362 219.2086 196.0327 1.00273141 1109



Live tracking and technical data element details for USA 342 (NORAD 55263). USA 342 can be tracked NOW for your location showing map with azimuth and elevation plus other details from your city location.







IsCatalogInMostPopularTable: catalog: 55263, numindb: -1

Insert: records affected: 1


GetName: 55263 USA 342

Hit Count: inserted at: Mon, 05 Jun 2023 19:37:42 GMT